TimeCST,TemperatureF,Dew PointF,Humidity,Sea Level PressureIn,VisibilityMPH,Wind Direction,Wind SpeedMPH,Gust SpeedMPH,PrecipitationIn,Events,Conditions,WindDirDegrees,DateUTC
12:24 AM,33.8,32.0,93,30.27,10.0,North,6.9,-,N/A,,Mostly Cloudy,350,2013-01-17 06:24:00
12:55 AM,32.4,30.7,94,30.29,10.0,NNW,8.1,-,N/A,,Overcast,340,2013-01-17 06:55:00
1:13 AM,32.0,30.2,93,30.31,10.0,NNW,4.6,-,N/A,,Scattered Clouds,330,2013-01-17 07:13:00
1:55 AM,26.2,26.1,99,30.33,10.0,North,3.5,-,N/A,,Clear,350,2013-01-17 07:55:00
2:55 AM,25.3,25.0,99,30.35,10.0,West,4.6,-,N/A,,Clear,270,2013-01-17 08:55:00
3:55 AM,26.6,26.2,99,30.36,10.0,NW,3.5,-,N/A,,Clear,320,2013-01-17 09:55:00
4:55 AM,23.7,23.0,97,30.39,10.0,Calm,Calm,-,N/A,,Clear,0,2013-01-17 10:55:00
5:55 AM,24.4,23.2,95,30.41,10.0,West,3.5,-,N/A,,Clear,280,2013-01-17 11:55:00
6:55 AM,20.8,20.3,98,30.42,10.0,Calm,Calm,-,N/A,,Mostly Cloudy,0,2013-01-17 12:55:00
7:55 AM,21.2,21.0,99,30.44,10.0,NNE,5.8,-,N/A,,Clear,30,2013-01-17 13:55:00
8:55 AM,26.1,25.2,96,30.46,10.0,Calm,Calm,-,N/A,,Clear,0,2013-01-17 14:55:00
9:55 AM,29.5,23.7,79,30.49,10.0,Calm,Calm,-,N/A,,Clear,0,2013-01-17 15:55:00
10:55 AM,31.3,24.1,75,30.49,10.0,South,3.5,-,N/A,,Clear,190,2013-01-17 16:55:00
11:55 AM,35.2,27.1,72,30.47,10.0,South,5.8,-,N/A,,Clear,190,2013-01-17 17:55:00
12:55 PM,35.2,28.8,77,30.46,10.0,SW,5.8,-,N/A,,Clear,230,2013-01-17 18:55:00
1:55 PM,34.3,30.6,86,30.43,10.0,WSW,8.1,-,N/A,,Clear,240,2013-01-17 19:55:00
2:02 PM,33.8,30.2,87,30.43,10.0,WSW,6.9,-,N/A,,Partly Cloudy,250,2013-01-17 20:02:00
2:22 PM,33.8,32.0,93,30.43,10.0,Variable,4.6,-,N/A,,Mostly Cloudy,0,2013-01-17 20:22:00
2:32 PM,33.8,32.0,93,30.43,10.0,Variable,3.5,-,N/A,,Mostly Cloudy,0,2013-01-17 20:32:00
2:41 PM,35.6,32.0,87,30.43,10.0,SW,5.8,-,N/A,,Overcast,220,2013-01-17 20:41:00
2:55 PM,34.0,31.5,90,30.43,10.0,WSW,6.9,-,N/A,,Overcast,240,2013-01-17 20:55:00
3:20 PM,33.8,32.0,93,30.44,10.0,West,3.5,-,N/A,,Overcast,280,2013-01-17 21:20:00
3:48 PM,33.8,32.0,93,30.43,10.0,WSW,4.6,-,N/A,,Mostly Cloudy,240,2013-01-17 21:48:00
3:51 PM,33.8,32.0,93,30.43,10.0,WSW,4.6,-,N/A,,Scattered Clouds,240,2013-01-17 21:51:00
3:55 PM,33.4,31.6,93,30.43,10.0,WSW,4.6,-,N/A,,Scattered Clouds,240,2013-01-17 21:55:00
4:55 PM,32.9,32.0,96,30.43,10.0,Calm,Calm,-,N/A,,Clear,0,2013-01-17 22:55:00
5:55 PM,27.1,27.0,99,30.44,10.0,WNW,3.5,-,N/A,,Clear,290,2013-01-17 23:55:00
6:40 PM,26.6,26.6,100,30.43,2.0,Calm,Calm,-,N/A,,Clear,0,2013-01-18 00:40:00
6:41 PM,26.6,26.6,100,30.43,1.5,Calm,Calm,-,N/A,,Clear,0,2013-01-18 00:41:00
6:46 PM,24.8,24.8,100,30.43,0.8,Calm,Calm,-,N/A,,Clear,0,2013-01-18 00:46:00
6:51 PM,23.0,23.0,100,30.43,1.0,Calm,Calm,-,N/A,,Clear,0,2013-01-18 00:51:00
6:55 PM,23.0,23.0,100,30.50,7.0,Calm,Calm,-,N/A,,Clear,0,2013-01-18 00:55:00
7:55 PM,21.2,21.2,100,30.41,5.0,NE,3.5,-,N/A,,Clear,50,2013-01-18 01:55:00
8:55 PM,21.2,21.2,100,30.40,4.0,Calm,Calm,-,N/A,,Clear,0,2013-01-18 02:55:00
9:38 PM,23.0,23.0,100,30.38,2.5,Calm,Calm,-,N/A,,Clear,0,2013-01-18 03:38:00
9:39 PM,23.0,23.0,100,30.38,1.5,Calm,Calm,-,N/A,,Clear,0,2013-01-18 03:39:00
9:41 PM,23.0,23.0,100,30.38,0.5,Calm,Calm,-,N/A,Fog,Light Freezing Fog,0,2013-01-18 03:41:00
9:43 PM,23.0,23.0,100,30.38,0.2,Calm,Calm,-,N/A,Fog,Light Freezing Fog,0,2013-01-18 03:43:00
9:46 PM,23.0,23.0,100,30.38,0.2,Calm,Calm,-,N/A,Fog,Light Freezing Fog,0,2013-01-18 03:46:00
9:55 PM,23.0,23.0,100,30.32,3.0,East,3.5,-,N/A,,Clear,100,2013-01-18 03:55:00
10:55 PM,25.2,25.0,99,30.35,10.0,South,3.5,-,N/A,,Clear,190,2013-01-18 04:55:00
11:55 PM,28.2,28.2,100,30.33,10.0,Calm,Calm,-,N/A,,Clear,0,2013-01-18 05:55:00